Regional Weather Roundup
Issued by NWS

Home | Current Version | Previous Version | Text Only | Print | Product List | Glossary On
Versions: 1 2 3 4 5 6 7 8 9 10 11 12 13 14 15 16 17 18 19 20 21 22 23 24 25 26 27 28 29 30 31 32 33 34 35 36 37 38 39 40 41 42 43 44 45 46 47 48 49 50
000
ASUS44 KLIX 040213
RWRLA
LOUISIANA WEATHER ROUNDUP
NATIONAL WEATHER SERVICE NEW ORLEANS LA
800 PM CST SAT DEC 03 2016

NOTE: "FAIR" INDICATES FEW OR NO CLOUDS BELOW 12,000 FEET WITH NO
      SIGNIFICANT WEATHER AND/OR OBSTRUCTIONS TO VISIBILITY.
      SKY/WX - SKY CONDITION AND SIGNIFICANT WEATHER.
      TMP - AIR TEMPERATURE.    DP   - DEWPOINT TEMPERATURE.
      RH  - RELATIVE HUMIDITY.  PRES - PRESSURE.
      HX  - HEAT INDEX.         WCI  - WIND CHILL INDEX.

*  THESE STATIONS ARE NOT NWS OR FAA STATIONS AND ARE NOT UNDER
   NWS QUALITY CONTROL.

LAZ040-048-061>063-065-066-069-040300-
SOUTHEAST LOUISIANA

CITY           SKY/WX    TMP DP  RH WIND       PRES   REMARKS
N.O. AUDUBON   NOT AVBL
N.O. INTL ARPT DRIZZLE   61  55  81 E23G36    29.98F
N.O. LAKEFRONT LGT RAIN  63  52  67 E24G33    29.99F
N.O. DOWNTOWN* LGT RAIN  62  54  74 E10G17    30.00S
RESERVE*       CLOUDY    63  52  66 E17       29.98S
SLIDELL        MOCLDY    60  39  45 E9        30.01F
BATON ROUGE    CLOUDY    60  49  66 E20G28    29.94F
BOOTHVILLE     CLOUDY    67  64  90 E12       30.00S
BELLE CHASSE   CLOUDY    61  57  87 E18       29.98F
BOGALUSA*      CLOUDY    58  40  51 E6        30.05S
GALLIANO*      CLOUDY    64  59  82 NE6       29.97S
NEW ROADS*     MOCLDY    58  50  76 E14G22    29.93R
GONZALES*      CLOUDY    61  50  66 E10G24    29.95F
HAMMOND*       CLOUDY    59  37  44 E14       29.99F
HOUMA*         LGT RAIN  61  59  95 E13G18    29.96S
PORT FOURCHON* CLOUDY    72  68  88 SE12G24   29.95S HAZE

$$

LAZ041-044-053-054-040300-
SOUTHWEST LOUISIANA

CITY           SKY/WX    TMP DP  RH WIND       PRES   REMARKS
LAKE CHARLES   TSTM      55  55 100 NE13      29.87R FOG
LAFAYETTE      CLOUDY    61  60  97 E9        29.90S
PATTERSON      CLOUDY   N/A N/A N/A E14       29.93F
SALT POINT     NOT AVBL
NEW IBERIA     LGT RAIN  62  57  83 E9        29.91S
CHENAULT AIRPK HVY RAIN  54  54 100 NW15      29.87S FOG

$$

LAZ027-028-040300-
CENTRAL LOUISIANA

CITY           SKY/WX    TMP DP  RH WIND       PRES   REMARKS
FORT POLK      LGT RAIN  50  49  98 NE8       29.91S FOG
ALEXANDRIA INT RAIN      48  48 100 N5        29.94S FOG
ALEXANDRIA     HVY RAIN  48  48 100 VRB5      29.97R FOG

$$

LAZ001-002-040300-
NORTHWEST LOUISIANA

CITY           SKY/WX    TMP DP  RH WIND       PRES   REMARKS
SHREVEPORT     LGT RAIN  48  47  96 NE9       29.99R FOG
BARKSDALE AFB  LGT RAIN  47  47 100 E6        30.00F
DTN SHREVEPORT LGT RAIN  48  45  89 NE5       30.00S FOG

$$

LAZ014-016-040300-
NORTHEAST LOUISIANA

CITY           SKY/WX    TMP DP  RH WIND       PRES   REMARKS
MONROE         LGT RAIN  47  45  93 E12G18    30.03S
TALLULAH       LGT RAIN  48  45  89 NE10      30.02S

$$




USA.gov is the U.S. government's official web portal to all federal, state and local government web resources and services.